This demonstration page uses our WeatherBlox Daily Observations layout. Learn more.

Hourly Observations for July 26, 2017

Temp ( °F °C ) Dew Point ( °F °C ) Humidity (%) Winds ( mph kmh ) Pressure ( in mb ) Visibility ( mi km ) Precip ( " mm )
12:15 am 00:15 Clear 64 18 64 18 100 100 Calm 30.21 1023 10 16.09344 0 0
12:35 am 00:35 Clear 64 18 64 18 100 100 Calm 30.24 1024 10 16.09344 0 0
12:55 am 00:55 Clear 64 18 64 18 100 100 Calm 30.21 1023 10 16.09344 0 0
1:15 am 01:15 Clear 68 20 64 18 88 88 N 3 6 30.21 1023 10 16.09344 0 0
1:35 am 01:35 Clear 66 19 64 18 94 94 Calm 30.24 1024 10 16.09344 0 0
1:55 am 01:55 Clear 64 18 63 17 94 94 Calm 30.21 1023 10 16.09344 0 0
2:15 am 02:15 Clear 63 17 63 17 100 100 Calm 30.21 1023 10 16.09344 0 0
2:35 am 02:35 Clear 63 17 63 17 100 100 Calm 30.21 1023 10 16.09344 0 0
2:55 am 02:55 Clear 63 17 63 17 100 100 Calm 30.21 1023 10 16.09344 0 0
3:15 am 03:15 Clear 63 17 63 17 100 100 Calm 30.21 1023 10 16.09344 0 0
3:35 am 03:35 Clear 63 17 63 17 100 100 Calm 30.21 1023 10 16.09344 0 0
3:55 am 03:55 Clear 63 17 63 17 100 100 Calm 30.21 1023 10 16.09344 0 0
4:15 am 04:15 Clear 63 17 63 17 100 100 Calm 30.21 1023 10 16.09344 0 0
4:35 am 04:35 Clear 63 17 63 17 100 100 Calm 30.21 1023 10 16.09344 0 0
4:55 am 04:55 Clear 61 16 61 16 100 100 N 3 6 30.21 1023 10 16.09344 0 0
5:15 am 05:15 Clear 61 16 61 16 100 100 N 3 6 30.21 1023 10 16.09344 0 0
5:35 am 05:35 Clear 61 16 61 16 100 100 N 3 6 30.21 1023 10 16.09344 0 0
5:55 am 05:55 Clear 63 17 63 17 100 100 Calm 30.21 1023 10 16.09344 0 0
6:15 am 06:15 Sunny 61 16 61 16 100 100 Calm 30.24 1024 10 16.09344 0 0
6:35 am 06:35 Sunny 63 17 63 17 100 100 NNE 3 6 30.24 1024 10 16.09344 0 0
6:55 am 06:55 Sunny 64 18 64 18 100 100 NNE 5 7 30.24 1024 10 16.09344 0 0
7:15 am 07:15 Sunny 64 18 64 18 100 100 NNE 5 7 30.24 1024 10 16.09344 0 0
7:35 am 07:35 Sunny 66 19 64 18 94 94 N 7 11 30.24 1024 10 16.09344 0 0
7:55 am 07:55 Sunny 68 20 64 18 88 88 NNE 3 6 30.27 1025 10 16.09344 0 0
8:15 am 08:15 Sunny 68 20 64 18 88 88 N 7 11 30.27 1025 10 16.09344 0 0
8:35 am 08:35 Partly Cloudy 70 21 64 18 83 83 N 6 9 30.24 1024 10 16.09344 0 0
8:55 am 08:55 Partly Cloudy 70 21 64 18 83 83 NNE 5 7 30.24 1024 10 16.09344 0 0
9:15 am 09:15 Partly Cloudy 70 21 64 18 83 83 N 5 7 30.24 1024 10 16.09344 0 0
9:35 am 09:35 Partly Cloudy 72 22 66 19 83 83 NNE 5 7 30.24 1024 10 16.09344 0 0
9:55 am 09:55 Partly Cloudy 72 22 66 19 83 83 NNE 3 6 30.24 1024 7 11.265408 0 0
10:15 am 10:15 Partly Cloudy 73 23 66 19 78 78 E 3 6 30.24 1024 10 16.09344 0 0
10:35 am 10:35 Sunny 73 23 66 19 78 78 ENE 5 7 30.24 1024 10 16.09344 0 0
10:55 am 10:55 Mostly Cloudy 75 24 66 19 74 74 NE 3 6 30.24 1024 10 16.09344 0 0
11:15 am 11:15 Mostly Cloudy 77 25 64 18 65 65 Calm 30.24 1024 10 16.09344 0 0
11:35 am 11:35 Mostly Cloudy 77 25 64 18 65 65 ESE 3 6 30.21 1023 10 16.09344 0 0
11:55 am 11:55 Mostly Cloudy 79 26 64 18 61 61 SSE 3 6 30.21 1023 10 16.09344 0 0
12:15 pm 12:15 Mostly Cloudy 79 26 63 17 58 58 Calm 30.21 1023 10 16.09344 0 0
12:35 pm 12:35 Mostly Cloudy 79 26 64 18 61 61 S 5 7 30.21 1023 10 16.09344 0 0
12:55 pm 12:55 Mostly Cloudy 81 27 64 18 58 58 SW 7 11 30.21 1023 10 16.09344 0 0
1:15 pm 13:15 Mostly Cloudy 82 28 64 18 55 55 WSW 5 7 30.21 1023 10 16.09344 0 0
1:35 pm 13:35 Cloudy 81 27 64 18 58 58 SSW 6 9 30.21 1023 10 16.09344 0 0
1:55 pm 13:55 Mostly Cloudy 84 29 66 19 55 55 SSW 5 7 30.18 1022 10 16.09344 0 0
2:15 pm 14:15 Mostly Cloudy 82 28 66 19 58 58 Calm 30.18 1022 10 16.09344 0 0
2:35 pm 14:35 Mostly Cloudy 82 28 66 19 58 58 S 6 9 30.18 1022 10 16.09344 0 0
2:55 pm 14:55 Partly Cloudy 82 28 64 18 55 55 SE 3 6 30.15 1021 10 16.09344 0 0
3:15 pm 15:15 Sunny 82 28 64 18 55 55 S 5 7 30.15 1021 10 16.09344 0 0
3:35 pm 15:35 Sunny 82 28 64 18 55 55 Calm 30.15 1021 10 16.09344 0 0
3:55 pm 15:55 Partly Cloudy 86 30 63 17 46 46 SSW 5 7 30.15 1021 10 16.09344 0 0
4:15 pm 16:15 Partly Cloudy 86 30 64 18 49 49 SW 3 6 30.15 1021 10 16.09344 0 0
4:35 pm 16:35 Partly Cloudy 86 30 64 18 49 49 S 5 7 30.12 1020 10 16.09344 0 0
4:55 pm 16:55 Partly Cloudy 86 30 64 18 49 49 W 3 6 30.12 1020 10 16.09344 0 0
5:15 pm 17:15 Partly Cloudy 84 29 64 18 51 51 WSW 5 7 30.12 1020 10 16.09344 0 0
5:35 pm 17:35 Partly Cloudy 86 30 64 18 49 49 Calm 30.12 1020 10 16.09344 0 0
5:55 pm 17:55 Partly Cloudy 86 30 63 17 46 46 SSW 3 6 30.12 1020 10 16.09344 0 0
6:15 pm 18:15 Sunny 86 30 64 18 49 49 Calm 30.12 1020 10 16.09344 0 0
6:35 pm 18:35 Sunny 84 29 63 17 48 48 S 5 7 30.09 1019 10 16.09344 0 0
6:55 pm 18:55 Sunny 84 29 64 18 51 51 SSW 3 6 30.09 1019 10 16.09344 0 0
7:15 pm 19:15 Sunny 84 29 64 18 51 51 Calm 30.09 1019 10 16.09344 0 0
7:35 pm 19:35 Sunny 82 28 64 18 55 55 SSE 3 6 30.09 1019 10 16.09344 0 0
7:55 pm 19:55 Sunny 82 28 64 18 55 55 Calm 30.09 1019 10 16.09344 0 0
8:15 pm 20:15 Sunny 81 27 66 19 62 62 S 3 6 30.09 1019 10 16.09344 0 0
8:35 pm 20:35 Clear 81 27 64 18 58 58 SSE 3 6 30.09 1019 10 16.09344 0 0
8:55 pm 20:55 Clear 79 26 64 18 61 61 S 3 6 30.09 1019 10 16.09344 0 0
9:15 pm 21:15 Clear 77 25 68 20 74 74 Calm 30.09 1019 10 16.09344 0 0
9:35 pm 21:35 Clear 75 24 70 21 83 83 ENE 6 9 30.09 1019 10 16.09344 0 0
9:55 pm 21:55 Clear 77 25 68 20 74 74 ESE 3 6 30.12 1020 10 16.09344 0 0
10:15 pm 22:15 Mostly Cloudy 77 25 70 21 79 79 SE 7 11 30.12 1020 10 16.09344 0 0
10:35 pm 22:35 Mostly Cloudy 77 25 70 21 79 79 SSE 5 7 30.12 1020 10 16.09344 0 0
10:55 pm 22:55 Cloudy 79 26 70 21 74 74 S 7 11 30.12 1020 10 16.09344 0 0
11:15 pm 23:15 Cloudy 79 26 70 21 74 74 SSE 8 13 30.12 1020 10 16.09344 0 0
11:35 pm 23:35 Cloudy 77 25 70 21 79 79 S 8 13 30.12 1020 10 16.09344 0 0
11:55 pm 23:55 Partly Cloudy 77 25 70 21 79 79 SSE 5 7 30.12 1020 10 16.09344 0 0

Powered by AerisWeather